When you browse on this site, cookies collect data to enhance your experience and personalize the content and advertising you see.
Visit our Privacy Policy to learn more. By continuing to use the site, you agree to this use of cookies and data.

Tiempo cada hora Vorozhba

Hoy, 11 Julio, Sábado

Tiempo Temperatura Precipitaciones Viento Presión Humedad
00:00 +16°C° 0 mm 2 mps 752 mmHg 75%
01:00 +16°C° 0 mm 2 mps 752 mmHg 76%
02:00 +15°C° 0 mm 2 mps 752 mmHg 78%
03:00 +16°C° 0 mm 2 mps 752 mmHg 79%
04:00 +16°C° 0 mm 2 mps 752 mmHg 80%
05:00 +16°C° 0 mm 2 mps 752 mmHg 82%
06:00 +17°C° 0 mm 3 mps 752 mmHg 79%
07:00 +19°C° 0 mm 3 mps 752 mmHg 76%
08:00 +21°C° 0 mm 3 mps 752 mmHg 73%
09:00 +22°C° 0 mm 3 mps 752 mmHg 70%
10:00 +25°C° 0 mm 3 mps 752 mmHg 67%
11:00 +26°C° 0 mm 4 mps 752 mmHg 64%
12:00 +26°C° 0 mm 3 mps 752 mmHg 62%
13:00 +27°C° 0 mm 3 mps 752 mmHg 61%
14:00 +27°C° 0 mm 3 mps 751 mmHg 60%
15:00 +27°C° 0 mm 3 mps 751 mmHg 62%
16:00 +27°C° 0 mm 2 mps 751 mmHg 64%
17:00 +27°C° 0 mm 2 mps 751 mmHg 67%
18:00 +25°C° 0 mm 2 mps 750 mmHg 70%
19:00 +24°C° 0 mm 2 mps 750 mmHg 74%
20:00 +21°C° 0 mm 2 mps 750 mmHg 77%
21:00 +20°C° 0 mm 2 mps 750 mmHg 78%
22:00 +19°C° 0 mm 2 mps 750 mmHg 79%
23:00 +19°C° 0 mm 2 mps 750 mmHg 80%

Mañana, 12 Julio, Domingo

Tiempo Temperatura Precipitaciones Viento Presión Humedad
00:00 +18°C° 0 mm 2 mps 750 mmHg 80%
01:00 +18°C° 0 mm 3 mps 749 mmHg 79%
02:00 +17°C° 0 mm 3 mps 749 mmHg 79%
03:00 +17°C° 0 mm 2 mps 749 mmHg 81%
04:00 +17°C° 0 mm 2 mps 749 mmHg 83%
05:00 +17°C° 0 mm 2 mps 749 mmHg 84%
06:00 +19°C° 0 mm 2 mps 749 mmHg 80%
07:00 +21°C° 0 mm 2 mps 749 mmHg 76%
08:00 +23°C° 0 mm 2 mps 749 mmHg 71%
09:00 +24°C° 0 mm 2 mps 749 mmHg 68%
10:00 +26°C° 0 mm 2 mps 748 mmHg 64%
11:00 +27°C° 0 mm 2 mps 748 mmHg 60%
12:00 +27°C° 0 mm 2 mps 748 mmHg 59%
13:00 +27°C° 0 mm 2 mps 748 mmHg 57%
14:00 +28°C° 0 mm 2 mps 747 mmHg 55%
15:00 +28°C° 0 mm 2 mps 747 mmHg 57%
16:00 +28°C° 0 mm 2 mps 746 mmHg 59%
17:00 +27°C° 0 mm 1 mps 746 mmHg 61%
18:00 +26°C° 0 mm 1 mps 745 mmHg 64%
19:00 +24°C° 0 mm 1 mps 745 mmHg 68%
20:00 +22°C° 0 mm 1 mps 745 mmHg 71%
21:00 +21°C° 0 mm 1 mps 745 mmHg 72%
22:00 +21°C° 0 mm 1 mps 745 mmHg 73%
23:00 +19°C° 0 mm 2 mps 745 mmHg 74%

Pasado mañana, 13 Julio, Lunes

Tiempo Temperatura Precipitaciones Viento Presión Humedad
00:00 +20°C° 0 mm 1 mps 744 mmHg 75%
01:00 +19°C° 0 mm 1 mps 744 mmHg 76%
02:00 +19°C° 0 mm 1 mps 744 mmHg 77%
03:00 +19°C° 0 mm 1 mps 744 mmHg 78%
04:00 +19°C° 0 mm 1 mps 743 mmHg 79%
05:00 +19°C° 0 mm 1 mps 743 mmHg 80%
06:00 +20°C° 0 mm 1 mps 743 mmHg 79%
07:00 +20°C° 0 mm 2 mps 743 mmHg 78%
08:00 +21°C° 0 mm 3 mps 743 mmHg 78%
09:00 +22°C° 0.2 mm 3 mps 743 mmHg 76%
10:00 +24°C° 0.2 mm 3 mps 743 mmHg 74%
11:00 +25°C° 0.2 mm 4 mps 743 mmHg 72%
12:00 +23°C° 0.5 mm 5 mps 743 mmHg 76%
13:00 +23°C° 0.5 mm 5 mps 743 mmHg 79%
14:00 +22°C° 0.5 mm 6 mps 743 mmHg 82%
15:00 +21°C° 0.4 mm 6 mps 743 mmHg 84%
16:00 +19°C° 0.4 mm 6 mps 743 mmHg 85%
17:00 +17°C° 0.4 mm 7 mps 742 mmHg 87%
18:00 +16°C° 0.1 mm 6 mps 743 mmHg 88%
19:00 +16°C° 0.1 mm 6 mps 743 mmHg 89%
20:00 +15°C° 0.1 mm 5 mps 743 mmHg 89%
21:00 +15°C° 0 mm 5 mps 743 mmHg 89%
22:00 +15°C° 0 mm 5 mps 742 mmHg 88%
23:00 +15°C° 0 mm 5 mps 742 mmHg 87%

14 Julio, Martes

Tiempo Temperatura Precipitaciones Viento Presión Humedad
00:00 +14°C° 0 mm 5 mps 742 mmHg 87%
01:00 +14°C° 0 mm 5 mps 742 mmHg 87%
02:00 +14°C° 0 mm 5 mps 742 mmHg 87%
03:00 +14°C° 0 mm 5 mps 742 mmHg 87%
04:00 +14°C° 0 mm 5 mps 742 mmHg 87%
05:00 +14°C° 0 mm 5 mps 742 mmHg 87%
06:00 +15°C° 0 mm 5 mps 742 mmHg 86%
07:00 +15°C° 0 mm 5 mps 742 mmHg 86%
08:00 +15°C° 0 mm 5 mps 743 mmHg 85%
09:00 +16°C° 0 mm 5 mps 743 mmHg 84%
10:00 +17°C° 0 mm 5 mps 743 mmHg 82%
11:00 +19°C° 0 mm 5 mps 743 mmHg 80%
12:00 +19°C° 0.1 mm 5 mps 743 mmHg 80%
13:00 +19°C° 0.1 mm 6 mps 743 mmHg 80%
14:00 +20°C° 0.1 mm 6 mps 743 mmHg 80%
15:00 +20°C° 0.1 mm 6 mps 743 mmHg 79%
16:00 +20°C° 0.1 mm 5 mps 743 mmHg 78%
17:00 +20°C° 0.1 mm 5 mps 743 mmHg 78%
18:00 +19°C° 0.1 mm 5 mps 743 mmHg 78%
19:00 +19°C° 0.1 mm 5 mps 743 mmHg 79%
20:00 +17°C° 0.1 mm 5 mps 743 mmHg 80%
21:00 +16°C° 0 mm 5 mps 743 mmHg 79%
22:00 +16°C° 0 mm 5 mps 743 mmHg 79%
23:00 +16°C° 0 mm 5 mps 743 mmHg 79%

15 Julio, Miércoles

Tiempo Temperatura Precipitaciones Viento Presión Humedad
00:00 +15°C° 0 mm 5 mps 743 mmHg 81%
01:00 +15°C° 0 mm 5 mps 743 mmHg 83%
02:00 +14°C° 0 mm 5 mps 743 mmHg 85%
03:00 +14°C° 0 mm 5 mps 743 mmHg 86%
04:00 +14°C° 0 mm 5 mps 744 mmHg 86%
05:00 +14°C° 0 mm 5 mps 744 mmHg 87%
06:00 +15°C° 0 mm 5 mps 744 mmHg 83%
07:00 +16°C° 0 mm 5 mps 744 mmHg 79%
08:00 +19°C° 0 mm 5 mps 745 mmHg 75%
09:00 +20°C° 0.1 mm 6 mps 745 mmHg 71%
10:00 +21°C° 0.1 mm 6 mps 745 mmHg 66%
11:00 +22°C° 0.1 mm 6 mps 745 mmHg 62%
12:00 +22°C° 0.1 mm 6 mps 745 mmHg 61%
13:00 +22°C° 0.1 mm 6 mps 746 mmHg 60%
14:00 +23°C° 0.1 mm 5 mps 746 mmHg 60%
15:00 +22°C° 0.1 mm 5 mps 746 mmHg 63%
16:00 +22°C° 0.1 mm 4 mps 746 mmHg 65%
17:00 +21°C° 0.1 mm 4 mps 746 mmHg 68%
18:00 +20°C° 0 mm 4 mps 746 mmHg 72%
19:00 +18°C° 0 mm 3 mps 746 mmHg 77%
20:00 +16°C° 0 mm 2 mps 746 mmHg 81%
21:00 +15°C° 0 mm 2 mps 746 mmHg 83%
22:00 +15°C° 0 mm 2 mps 746 mmHg 86%
23:00 +14°C° 0 mm 2 mps 746 mmHg 88%

16 Julio, Jueves

Tiempo Temperatura Precipitaciones Viento Presión Humedad
00:00 +14°C° 0 mm 2 mps 746 mmHg 89%
01:00 +13°C° 0 mm 2 mps 746 mmHg 91%
02:00 +13°C° 0 mm 2 mps 746 mmHg 92%
03:00 +13°C° 0 mm 2 mps 746 mmHg 92%
04:00 +13°C° 0 mm 2 mps 746 mmHg 91%
05:00 +13°C° 0 mm 2 mps 745 mmHg 91%
06:00 +15°C° 0 mm 2 mps 745 mmHg 85%
07:00 +17°C° 0 mm 2 mps 746 mmHg 78%
08:00 +19°C° 0 mm 2 mps 746 mmHg 72%
09:00 +20°C° 0 mm 2 mps 746 mmHg 67%
10:00 +21°C° 0 mm 2 mps 746 mmHg 62%
11:00 +23°C° 0 mm 2 mps 745 mmHg 56%
12:00 +23°C° 0 mm 2 mps 745 mmHg 54%
13:00 +24°C° 0 mm 2 mps 745 mmHg 52%
14:00 +24°C° 0 mm 2 mps 745 mmHg 50%
15:00 +24°C° 0 mm 2 mps 744 mmHg 52%
16:00 +24°C° 0 mm 2 mps 744 mmHg 54%
17:00 +24°C° 0 mm 1 mps 744 mmHg 56%
18:00 +22°C° 0 mm 1 mps 744 mmHg 59%
19:00 +20°C° 0 mm 1 mps 744 mmHg 63%
20:00 +18°C° 0 mm 1 mps 744 mmHg 66%
21:00 +18°C° 0 mm 1 mps 744 mmHg 67%
22:00 +16°C° 0 mm 2 mps 743 mmHg 68%
23:00 +16°C° 0 mm 2 mps 743 mmHg 70%
Mostrar más